This is the latest recevied weather packets stored in our database for station/object GW7110. If no packets are shown the sender has not sent any weather packets the latest 10 day(s).
| Time | Temp. | Humidity | Pressure | Rain* | Wind** | Luminosity | Snow |
|---|---|---|---|---|---|---|---|
| 1777394774 | 21.67° C | 75% | 30.1 hPa | 0 mm | - | 190 W/m² | - |
| 1777394214 | 21.67° C | 76% | 30.1 hPa | 0 mm | - | 197 W/m² | - |
| 1777393874 | 21.67° C | 77% | 30.1 hPa | 0 mm | - | 174 W/m² | - |
| 1777393575 | 21.67° C | 78% | 30.1 hPa | 0 mm | - | 163 W/m² | - |
| 1777393274 | 21.67° C | 76% | 30.1 hPa | 0 mm | - | 148 W/m² | - |
| 1777392974 | 21.11° C | 79% | 30.1 hPa | 0 mm | - | 176 W/m² | - |
| 1777392374 | 21.11° C | 80% | 30.1 hPa | 0 mm | - | 151 W/m² | - |
| 1777390574 | 20° C | 83% | 30.1 hPa | 0 mm | - | 124 W/m² | - |
| 1777390273 | 20° C | 84% | 30.1 hPa | 0 mm | - | 131 W/m² | - |
| 1777389974 | 19.44° C | 85% | 30.1 hPa | 0 mm | - | 122 W/m² | - |
| 1777389674 | 19.44° C | 87% | 30.1 hPa | 0 mm | - | 109 W/m² | - |
| 1777389373 | 19.44° C | 86% | 30.1 hPa | 0 mm | - | 106 W/m² | - |
| 1777389074 | 19.44° C | 85% | 30.1 hPa | 0 mm | - | 110 W/m² | - |
| 1777388445 | 18.89° C | 87% | 30.1 hPa | 0.76 mm | - | 130 W/m² | - |
| 1777388145 | 18.33° C | 87% | 30.1 hPa | 1.52 mm | - | 114 W/m² | - |
| 1777387845 | 18.33° C | 88% | 30.1 hPa | 2.03 mm | - | 115 W/m² | - |
| 1777387545 | 18.33° C | 89% | 30.1 hPa | 2.03 mm | - | 137 W/m² | - |
| 1777386944 | 17.78° C | 89% | 30.1 hPa | 3.56 mm | - | 164 W/m² | - |
| 1777386645 | 17.22° C | 90% | 30.1 hPa | 3.56 mm | - | 180 W/m² | - |
| 1777386344 | 17.22° C | 91% | 30.1 hPa | 5.33 mm | - | 185 W/m² | - |
| 1777386046 | 17.22° C | 90% | 30.1 hPa | 9.4 mm | - | 163 W/m² | - |
| 1777385445 | 16.67° C | 92% | 30.1 hPa | 10.41 mm | - | 77 W/m² | - |
| 1777384845 | 16.67° C | 93% | 30.1 hPa | 9.91 mm | - | 16 W/m² | - |
| 1777384244 | 16.67° C | 93% | 30.1 hPa | 7.87 mm | - | 10 W/m² | - |
| 1777383945 | 16.67° C | 94% | 30.1 hPa | 7.87 mm | - | 12 W/m² | - |
* Rain latest hour (hover to see other rain measurements)
** Current wind speed in m/s (hover to see current wind gust speed)